Flag for Germany Weather past 2 weeks in Rathenow, Brandenburg, Germany

Now
36 °F

Overcast.


Feels Like: 31 °F
Forecast: 31 / 36 °F
Wind: 6 mph from Southwest

Location: Neuruppin

Current Time: Jan 29, 2015 at 6:20:18 AM

Latest Report: Jan 29, 2015 at 6:00 AM


Visibility: 6 mi

Pressure: 29.23 "Hg

Humidity: 79%

Dew point: 30 °F

Location of RathenowLocation

Historic Weather in Rathenow — Graph

°F

Rathenow temperature yesterday

Maximum temperature yesterday: 41 °F (at 2:00 PM)
Minimum temperature yesterday: 30 °F (at 1:00 AM)
Average temperature yesterday: 37 °F

Past Weeks' High & Low Weather Summary

 TemperatureHumidityPressure
High48 °F (Jan 16, 2:00 AM)100% (Jan 25, 6:00 PM)30.33 "Hg (Jan 25, 6:00 PM)
Low27 °F (Jan 19, 7:00 AM)60% (Jan 16, 2:00 PM)29.23 "Hg (Jan 28, 10:00 PM)
Average35 °F90%29.95 "Hg
* Reported Jan 14 5:00 AM — Jan 29 5:00 AM, Rathenow, Weather by CustomWeather, © 2014

Note: Actual official high and low records may vary slightly from our data, if they occured in-between our weather recording intervals... More about our weather records

Advertising

Rathenow weather history for previous 24 hours

 ConditionsComfort  
Time TempWeatherWind HumidityBarometerVisibility
5:00 AM
Jan 29
36 °FOvercast.5 mph82%29.23 "Hg6 mi
4:00 AM36 °FOvercast.6 mph84%29.23 "Hg6 mi
3:00 AM36 °FOvercast.7 mph82%29.23 "Hg6 mi
2:00 AM36 °FPassing clouds.6 mph85%29.23 "Hg6 mi
1:00 AM37 °FOvercast.6 mph87%29.23 "Hg6 mi
12:00 AM38 °FOvercast.8 mph91%29.23 "Hg6 mi
11:00 PM
Jan 28
38 °FOvercast.8 mph94%29.23 "Hg6 mi
10:00 PM37 °FLow clouds.8 mph95%29.23 "Hg6 mi
9:00 PM37 °FOvercast.10 mph93%29.29 "Hg6 mi
8:00 PM39 °FOvercast.10 mph84%29.32 "Hg6 mi
6:00 PM40 °FOvercast.8 mph79%29.44 "Hg6 mi
5:00 PM40 °FOvercast.10 mph78%29.50 "Hg6 mi
3:00 PM40 °FOvercast.8 mph79%29.62 "Hg6 mi
2:00 PM41 °FScattered clouds.9 mph80%29.67 "Hg6 mi
1:00 PM41 °FPartly sunny.7 mph81%29.72 "Hg6 mi
12:00 PM39 °FOvercast.6 mph87%29.79 "Hg6 mi
11:00 AM38 °FOvercast.5 mph93%29.84 "Hg6 mi
9:00 AM36 °FLow clouds.3 mph98%29.90 "Hg2 mi
8:00 AM36 °FLow clouds.2 mph100%29.92 "Hg2 mi
7:00 AM35 °FLow clouds.3 mph100%29.94 "Hg1 mi
6:00 AM35 °FChilly.2 mph100%29.96 "Hg1 mi
Weather by CustomWeather, © 2014

See weather overviewHow to use our weather pages